默认 日期 大小 文件数 浏览量 最新下载 xml
tim-磁力链接相关资源由用户搜索指令自动获取,结果来源于网络,本站不存储任何资料,亦不承担任何责任,请于24小时内删除,搜索到5788个磁力,显示前4000条数据,用时5ms。
    {"Law of the Badlands 1951.avi": 537006080, "Torrent downloaded from Demonoid.com.txt": 47}
创建时间: 2018-12-26 21:39:30 大小:512.13 MB 文件数量:2 热度:15 最近下载:2025-09-17 11:41:02
    {"cover.jpg": 119510, "12 - Amen.mp3": 8747008, "01 - Intro.mp3": 1116160, "13 - Outro.mp3": 1808384, "04 - 40 Miler.mp3": 8783872, "10 - T. Beene.mp3": 8839168, "02 - Wezeltown.mp3": 8456192, "06 - Shed Song.mp3": 9732096, "03 - Driver Pull.mp3": 11120640 ...
创建时间: 2018-12-27 00:50:17 大小:90.96 MB 文件数量:14 热度:9 最近下载:2025-03-21 22:56:04
    {"Artwork": {"cd.jpg": 1170176, "back.jpg": 1728542, "inlay.jpg": 1906813, "booklet1.jpg": 2182351, "booklet2.jpg": 1454787}, "folder.jpg": 44160, "04 - Kali-Au.flac": 41308921, "Autumn Leaves.cue": 1024, "05 - Chappaqua.flac": 40260416, "Folder.auCDtect. ...
创建时间: 2018-12-27 01:00:20 大小:322.05 MB 文件数量:17 热度:7 最近下载:2023-04-16 07:10:07
    {"Tim Powers - Lamia (Ita Libro).pdf": 1835945, "Tim Powers - Lamia (Ita Libro).epub": 661932, "Tim Powers - Lamia (Ita Libro).mobi": 943073}
创建时间: 2018-12-27 01:02:49 大小:3.28 MB 文件数量:3 热度:8 最近下载:2025-02-23 13:56:03
    {"CodecSetup": {"readme.txt": 362, "CodecSetup-PC.z": 28626, "CodecSetup-MAC.z": 2941675}, "readme.txt": 362, "Shaft (2019) Directed by: Tim Story.avi": 813673140}
创建时间: 2018-12-27 01:38:56 大小:778.81 MB 文件数量:5 热度:7 最近下载:2025-02-27 19:58:04
    ... èse Intemporelle.mp3": 23371776, "00. Tim Blake - Crystal Machine.jpg": 29058 ... , "00. Tim Blake - Crystal Machine.nfo": 757 ...
创建时间: 2018-12-27 02:05:11 大小:53.51 MB 文件数量:7 热度:7 最近下载:2024-12-17 02:16:01
    {"Info": {"Info.txt": 113, "back.JPG": 985351, "Disc 11.JPG": 978373, "73875.large.jpg": 178979, "studio_1695.jpg": 16298, "DVDMV-DECNIGHT.jpg": 171170, "Disc 11 Dvd Case.JPG": 696423, "Decrepit Crypt of Nightmares Cover.JPG": 885260}, "Audio": {" ...
创建时间: 2018-12-27 02:30:36 大小:1.03 GB 文件数量:10 热度:11 最近下载:2025-08-14 10:07:01
    {"content.txt": 1719, "1.Course Overview": {"01.Course Overview.mp4": 2375433}, "2.Monitoring Resources in Microsoft Azure": {"01.Welcome.mp4": 758917, "16.Summary.mp4": 1071050, "11.Azure Monitor.mp4": 4708871, "02.Exercise Files.mp4": 2565374, "05. ...
创建时间: 2018-12-27 03:26:08 大小:324.39 MB 文件数量:40 热度:8 最近下载:2025-08-02 09:25:12
    ... t01.flac": 118896710, "Tim Warfield 2016-12-08 late ... t02.flac": 136523973, "Tim Warfield 2016-12-08 late ... t03.flac": 30864168, "Tim Warfield 2016-12-08 late ... t04.flac": 41466777, "Tim Warfield 2016-12-08 late ... t06.flac": 130767629, "Tim Warfield 2016-12-08.late ...
创建时间: 2018-12-27 04:39:36 大小:446.28 MB 文件数量:9 热度:7 最近下载:2025-04-03 19:52:05
    {"BONUS LECTURE .mp4": 85842956, "Supplementation.mp4": 240071305, "Recovery From Workouts.mp4": 77358308, "Bulk For Gains Day Number 3.mp4": 568982071, "Bulk For Gains Day Number 4.mp4": 685836638, "Bulk For Gains Day Number 5.mp4": 528793566, "Bulk For ...
创建时间: 2018-12-27 05:35:25 大小:7.81 GB 文件数量:19 热度:10 最近下载:2025-01-23 16:53:02
    ... 18413636, "04 - Sweet Transvestite (Tim Curry).flac": 22774211, "07 - ... Charles Atlas Song (Tim Curry).flac": 12771501, "13 - ... Planet Schmanet Janet (Tim Curry).flac": 14909597, "06 - ... - Charles Atlas Song (Reprise) (Tim Curry).flac": 10526192, "02 - ...
创建时间: 2018-12-27 06:50:44 大小:321.4 MB 文件数量:36 热度:8 最近下载:2025-03-20 18:52:03
    {"01_w dol.mp3": 22379732, "02_w dol.mp3": 28056454, "03_w dol.mp3": 7808421, "04_w dol.mp3": 8328362, "05_w dol.mp3": 7135925, "06_w dol.mp3": 5645065, "07_w dol.mp3": 8378518, "08_w dol.mp3": 9281727, "09_w dol.mp3": 8317913, "10_w dol.mp3": 10204163, " ...
创建时间: 2018-12-27 09:18:28 大小:726.05 MB 文件数量:77 热度:7 最近下载:2023-04-16 14:40:05
    ... .avi": 28219392, "Felix Herngren om Tim Hibbins & Sacha.avi": 29786112, "Det ... , "Det b�sta av Tim Hibbins & Sacha.avi": 733962240 ...
创建时间: 2018-12-27 09:28:31 大小:2.09 GB 文件数量:13 热度:7 最近下载:2023-04-16 14:40:08
    {"EyrieUnabridgedPart1.mp3": 338502635, "EyrieUnabridgedPart2.mp3": 324620120}
创建时间: 2018-12-27 13:44:02 大小:632.4 MB 文件数量:2 热度:5 最近下载:2023-04-16 17:50:02
    ... VIII.flac": 4638001, "Aidan Baker & Tim Hecker - Fantasma Parastasie.log": 26099}
创建时间: 2018-12-27 14:27:11 大小:206.02 MB 文件数量:71 热度:7 最近下载:2023-04-16 18:20:08
    {"Tim Minchin So Live CD1.avi": 734111744, "Tim Minchin So Live CD2 .avi": 734083072, "Torrent downloaded from Demonoid.com.txt": 47}
创建时间: 2018-12-27 15:35:28 大小:1.37 GB 文件数量:3 热度:5 最近下载:2023-04-16 19:00:15
    ... .cc.txt": 446, "Tim.Vine.Tim.Timinee.Tim.Timinee.Tim.Tim.To.You.Live.2016 ...
创建时间: 2018-12-27 16:15:25 大小:593.24 MB 文件数量:5 热度:12 最近下载:2025-09-21 13:24:01
    ... .jpg": 61228, "LP.jpg": 44382, "Tim Hollier.jpg": 45266, "05.Evolution ... , "08.Love Song.mp3": 4553710, "Tim Hollier1.jpg": 83065, "07.Would ...
创建时间: 2018-12-27 16:58:58 大小:60.03 MB 文件数量:15 热度:4 最近下载:2023-04-16 19:30:05
    {"14-tim_buckley-song_to_the_siren_-_www.file24ever.com.mp3": 4392221, "14-tim_buckley-song_to_the_siren_-_www.file24ever.com.mp3.torrent": 2082}
创建时间: 2018-12-27 17:13:18 大小:4.19 MB 文件数量:2 热度:6 最近下载:2023-04-16 23:20:08
    {"TimRoseLP.jpg": 13337, "07 - morning dew.mp3": 7659648, "08 - where was i.mp3": 5181568, "10 - long time man.mp3": 10385536, "04 - fare thee well.mp3": 5837994, "11 - come away melinda.mp3": 7243904, "01 - i got a loneliness.mp3": 4651136, "02 - i'm ...
创建时间: 2018-12-27 19:32:50 大小:72.02 MB 文件数量:13 热度:5 最近下载:2023-04-17 01:30:04